Flag for Germany Weather past 2 weeks in Frechen, North Rhine-Westphalia, Germany

Now
73 °F

Mild.


Feels Like: 76 °F
Forecast: 67 / 89 °F
Wind: 3 mph from Southeast

Location: Noervenich

Current Time: Jul 2, 2015 at 3:17:39 AM

Latest Report: Jul 2, 2015 at 2:20 AM


Visibility: N/A

Pressure: 30.04 "Hg

Humidity: 61%

Dew point: 59 °F

Location of FrechenLocation

Historic Weather in Frechen — Graph

°F

Frechen temperature yesterday

Maximum temperature yesterday: 91 °F (at 4:20 PM)
Minimum temperature yesterday: 59 °F (at 5:20 AM)
Average temperature yesterday: 78 °F

Past Weeks' High & Low Weather Summary

 TemperatureHumidityPressure
High91 °F (Jul 1, 4:20 PM)100% (Jun 22, 11:20 PM)30.30 "Hg (Jun 22, 11:20 PM)
Low45 °F (Jun 17, 4:20 AM)25% (Jun 30, 6:20 PM)29.68 "Hg (Jun 22, 8:20 PM)
Average63 °F68%30.08 "Hg
* Reported Jun 17 1:20 AM — Jul 2 1:20 AM, Frechen, Weather by CustomWeather, © 2015

Note: Actual official high and low records may vary slightly from our data, if they occured in-between our weather recording intervals... More about our weather records

Advertising

Frechen weather history for previous 24 hours

 ConditionsComfort  
Time TempWeatherWind HumidityBarometerVisibility
1:20 AM
Thu, Jul 2
75 °FMild.2 mph57%30.04 "HgN/A
12:20 AM75 °FMild.2 mph57%30.04 "HgN/A
11:20 PM
Wed, Jul 1
79 °FWarm.1 mph48%30.04 "HgN/A
10:20 PM81 °FPassing clouds.1 mph45%30.04 "HgN/A
9:20 PM84 °FPassing clouds.3 mph40%30.01 "HgN/A
8:20 PM88 °FPassing clouds.5 mph35%30.01 "HgN/A
7:20 PM90 °FPassing clouds.7 mph33%30.01 "HgN/A
6:20 PM91 °FPassing clouds.9 mph30%30.01 "HgN/A
5:20 PM91 °FPassing clouds.8 mph32%30.01 "HgN/A
4:20 PM91 °FScattered clouds.6 mph34%30.01 "HgN/A
3:20 PM90 °FPartly sunny.7 mph36%30.01 "HgN/A
2:20 PM90 °FPartly sunny.8 mph33%30.04 "HgN/A
1:20 PM88 °FPartly sunny.9 mph35%30.04 "HgN/A
12:20 PM84 °FPartly sunny.9 mph40%30.07 "HgN/A
11:20 AM82 °FPassing clouds.8 mph42%30.07 "HgN/A
10:20 AM79 °FPassing clouds.6 mph48%30.07 "HgN/A
9:20 AM75 °FPassing clouds.7 mph54%30.07 "HgN/A
8:20 AM72 °FPassing clouds.5 mph57%30.09 "HgN/A
7:20 AM66 °FPassing clouds.1 mph64%30.09 "HgN/A
6:20 AM63 °FPassing clouds.1 mph73%30.09 "HgN/A
5:20 AM59 °FPassing clouds.2 mph82%30.09 "HgN/A
4:20 AM63 °FPassing clouds.2 mph73%30.09 "HgN/A
3:20 AM63 °FMild.2 mph73%30.09 "HgN/A
Weather by CustomWeather, © 2015

See weather overviewHow to use our weather pages